CW4525 Weather Reports


Display with metric or nautical units.
time (UTC)temp
F
wind
direction
speed
MPH
gust
MPH
rain 1hr
in
rain 24hr
in
rain mn
in
humidity
%
barometer
mb
20260506040047 65 114 4.0 11.0 0.00 0.00 0.00 60 1004.3
20260506034543 65 142 4.0 9.0 0.00 0.00 0.00 59 1004.3
20260506033043 66 137 6.0 10.0 0.00 0.00 0.00 58 1004.3
20260506031543 66 148 7.0 15.0 0.00 0.00 0.00 58 1004.4
20260506030040 66 207 7.0 15.0 0.00 0.00 0.00 58 1004.4
20260506024540 66 139 5.0 11.0 0.00 0.00 0.00 58 1004.5
20260506023050 66 198 6.0 13.0 0.00 0.00 0.00 58 1004.4
20260506021539 67 134 7.0 14.0 0.00 0.00 0.00 57 1004.4
20260506020109 67 213 6.0 12.0 0.00 0.00 0.00 57 1004.3
20260506014537 67 226 7.0 19.0 0.00 0.00 0.00 59 1004.3
20260506013038 66 180 4.0 9.0 0.00 0.00 0.00 64 1004.3
20260506011540 66 221 5.0 8.0 0.00 0.00 0.00 65 1004.3
20260506010037 67 182 3.0 6.0 0.00 0.00 0.00 64 1004.2
20260506004541 68 223 3.0 12.0 0.00 0.00 0.00 62 1004.2
20260506003035 71 247 9.0 18.0 0.00 0.00 0.00 55 1004.3
20260506001540 73 225 6.0 23.0 0.00 0.00 0.00 43 1003.4
20260506000051 73 147 8.0 21.0 0.00 0.00 0.00 43 1002.3
20260505234539 74 189 10.0 23.0 0.00 0.00 0.00 41 1002.1
20260505233033 74 174 9.0 24.0 0.00 0.00 0.00 42 1001.7
20260505231635 74 219 15.0 24.0 0.00 0.00 0.00 41 1001.6
20260505230041 75 186 16.0 33.0 0.00 0.00 0.00 40 1001.2
20260505224542 76 187 16.0 26.0 0.00 0.00 0.00 40 1001.1
20260505223037 77 207 13.0 27.0 0.00 0.00 0.00 39 1001.0
20260505221531 78 206 12.0 26.0 0.00 0.00 0.00 37 1000.8
20260505220030 78 153 12.0 27.0 0.00 0.00 0.00 36 1000.6
20260505214529 79 215 11.0 23.0 0.00 0.00 0.00 35 1000.6
20260505213029 79 255 8.0 26.0 0.00 0.00 0.00 35 1000.1
20260505211539 79 212 11.0 23.0 0.00 0.00 0.00 34 999.9
20260505210028 79 221 16.0 32.0 0.00 0.00 0.00 34 1000.0
20260505204527 79 159 14.0 35.0 0.00 0.00 0.00 34 1000.0
20260505203027 80 138 17.0 34.0 0.00 0.00 0.00 33 1000.2
20260505201525 80 214 12.0 29.0 0.00 0.00 0.00 32 1000.1
20260505200025 81 170 11.0 32.0 0.00 0.00 0.00 32 1000.1
20260505194524 81 194 16.0 33.0 0.00 0.00 0.00 30 1000.1
20260505193023 81 157 12.0 37.0 0.00 0.00 0.00 30 1000.4
20260505191530 81 179 19.0 31.0 0.00 0.00 0.00 30 1000.1
20260505190022 82 242 17.0 29.0 0.00 0.00 0.00 29 1000.6
20260505184519 81 157 13.0 31.0 0.00 0.00 0.00 31 1001.0
20260505183021 81 178 19.0 36.0 0.00 0.00 0.00 30 1001.2
20260505181518 81 178 18.0 39.0 0.00 0.00 0.00 30 1001.6
20260505180015 81 214 11.0 32.0 0.00 0.00 0.00 33 1001.6
20260505174522 80 228 10.0 29.0 0.00 0.00 0.00 34 1001.8
20260505173012 80 267 15.0 28.0 0.00 0.00 0.00 31 1002.1
20260505171516 79 204 15.0 28.0 0.00 0.00 0.00 34 1002.1
20260505170011 79 195 12.0 27.0 0.00 0.00 0.00 34 1002.3
20260505164506 79 192 10.0 22.0 0.00 0.00 0.00 37 1002.6
20260505163009 78 249 16.0 30.0 0.00 0.00 0.00 36 1002.9
20260505161502 78 194 10.0 19.0 0.00 0.00 0.00 38 1003.3
20260505153053 75 201 11.0 22.0 0.00 0.00 0.00 42 1004.1
20260505151547 73 145 8.0 18.0 0.00 0.00 0.00 44 1004.4
20260505124515 62 147 4.0 12.0 0.00 0.00 0.00 58 1004.4
20260505123009 61 163 4.0 9.0 0.00 0.00 0.00 60 1004.5
20260505121505 60 196 5.0 12.0 0.00 0.00 0.00 61 1004.6
20260505120002 58 183 7.0 15.0 0.00 0.00 0.00 63 1004.6
20260505114559 57 147 6.0 12.0 0.00 0.00 0.00 65 1004.6
20260505113058 55 215 6.0 11.0 0.00 0.00 0.00 69 1004.5
20260505111602 53 164 4.0 9.0 0.00 0.00 0.00 70 1004.3
20260505110111 53 144 5.0 9.0 0.00 0.00 0.00 68 1004.2
20260505101548 57 196 5.0 11.0 0.00 0.00 0.00 61 1004.1
20260505100046 57 176 6.0 15.0 0.00 0.00 0.00 59 1004.1
20260505094543 57 148 8.0 18.0 0.00 0.00 0.00 59 1004.1
20260505093042 57 146 8.0 18.0 0.00 0.00 0.00 58 1004.2
20260505091552 57 192 8.0 18.0 0.00 0.00 0.00 58 1004.3
20260505090040 57 192 9.0 18.0 0.00 0.00 0.00 58 1004.4
20260505084539 56 186 6.0 20.0 0.00 0.00 0.00 59 1004.3
20260505083049 56 131 8.0 14.0 0.00 0.00 0.00 59 1004.6
20260505081537 56 178 6.0 13.0 0.00 0.00 0.00 60 1004.7
20260505080038 55 207 7.0 13.0 0.00 0.00 0.00 61 1004.7
20260505074535 55 188 6.0 12.0 0.00 0.00 0.00 62 1004.7
20260505073032 55 165 5.0 10.0 0.00 0.00 0.00 61 1004.8
20260505071527 56 160 6.0 11.0 0.00 0.00 0.00 59 1004.8
20260505070024 56 148 7.0 15.0 0.00 0.00 0.00 59 1004.8
20260505064532 57 144 7.0 11.0 0.00 0.00 0.00 57 1004.9
20260505063022 57 144 5.0 13.0 0.00 0.00 0.00 57 1005.0
20260505061520 57 185 8.0 15.0 0.00 0.00 0.00 56 1005.1
20260505060020 57 174 5.0 15.0 0.00 0.00 0.00 56 1005.2
20260505054535 58 179 9.0 20.0 0.00 0.00 0.00 55 1005.3
20260505053015 58 165 9.0 20.0 0.00 0.00 0.00 55 1005.4
20260505051513 57 200 9.0 16.0 0.00 0.00 0.00 56 1005.3
20260505041507 57 217 7.0 15.0 0.00 0.00 0.00 55 1005.4